Location: Ambrosina
(19.9365°S, 43.9833°W)
Time: 08:36:07
(UTC+00:00)

CZ-4 R/B - Pass Details

Date: 11 May 2021
Orbit: 531 x 597 km, 97.7° (Epoch: 22 June)

Event Time Altitude Azimuth Distance (km) Brightness Sun altitude
Exits shadow 22:52:18 21° 302° (WNW) 1,344 3.8 -33.6°
Drops below altitude 10° 22:54:02 10° 319° (NW) 1,920 4.6 -34.0°
Sets 22:56:20 0° 329° (NNW) 2,806 5.4 -34.5°
